Weather History for Detroit, MI

Change the Weather History Date:

Tuesday, May 8, 2012

  Actual Average Record
Temperature  
Mean Temperature 65 °F -  
Max Temperature 73 °F 66 °F 86 °F (1963)
Min Temperature 57 °F 46 °F 31 °F (1950)
Growing Degree Days 15 (Base 50)    
Moisture  
Dew Point 52 °F    
Average Humidity 74    
Maximum Humidity 96    
Minimum Humidity 37    
Precipitation  
Precipitation 0.04 in - - ()
Sea Level Pressure  
Sea Level Pressure 29.79 in    
Wind  
Wind Speed 5 mph (WNW)    
Max Wind Speed 12 mph    
Max Gust Speed 20 mph    
Visibility 6 miles    
Events Rain    
Averages and records for this station are not official NWS values.
T = Trace of Precipitation, MM = Missing Value Source: NWS Daily Summary

Daily Weather History Graph

Daily Weather History Graph

Search for Another Location

Airport:

Trip Planner

Search our weather history database for the weather conditions in past years. The results will help you decide how hot, cold, wet, or windy it might be!

Date:

Astronomy

May. 08, 2012 Rise Set
Actual Time 6:17 AM EDT 8:40 PM EDT
Civil Twilight 5:46 AM EDT 9:11 PM EDT
Nautical Twilight 5:07 AM EDT 9:50 PM EDT
Astronomical Twilight 4:23 AM EDT 10:34 PM EDT
Moon 11:51 PM EDT (5/8) 8:22 AM EDT (5/8)
Length of Visible Light 15h 25m
Length of Day
14h 22m
Waning Gibbous, 91% of the Moon is Illuminated
May 8
Waning Gibbous
May 12
Last Quarter
May 20
New
May 28
First Quarter
Jun 4
Full

Hourly Weather History & Observations

Time (EDT) Temp. Dew Point Humidity Pressure Visibility Wind Dir Wind Speed Gust Speed Precip Events Conditions
12:53 AM 59.0 °F 57.0 °F 93% 29.79 in 2.5 mi South 3.5 mph - 0.01 in Rain Light Rain
1:17 AM 59.0 °F 57.2 °F 94% 29.79 in 2.5 mi SSW 3.5 mph - 0.02 in Rain Light Rain
1:26 AM 59.0 °F 57.2 °F 94% 29.78 in 2.5 mi SSW 3.5 mph - 0.02 in   Overcast
1:53 AM 59.0 °F 57.0 °F 93% 29.79 in 2.5 mi WSW 5.8 mph - 0.02 in   Overcast
2:02 AM 59.0 °F 57.2 °F 94% 29.79 in 2.5 mi West 6.9 mph - N/A   Overcast
2:17 AM 59.0 °F 57.2 °F 94% 29.78 in 3.0 mi West 5.8 mph - 0.00 in Rain Light Rain
2:28 AM 59.0 °F 57.2 °F 94% 29.78 in 2.5 mi WSW 3.5 mph - 0.00 in Rain Light Rain
2:37 AM 59.0 °F 57.2 °F 94% 29.78 in 3.0 mi WSW 4.6 mph - 0.00 in Rain Light Rain
2:53 AM 59.0 °F 57.9 °F 96% 29.78 in 3.0 mi West 4.6 mph - 0.00 in Rain Light Rain
3:03 AM 59.0 °F 57.2 °F 94% 29.77 in 2.0 mi West 4.6 mph - 0.00 in Rain Light Rain
3:45 AM 59.0 °F 57.2 °F 94% 29.77 in 4.0 mi NW 3.5 mph - 0.01 in   Overcast
3:53 AM 59.0 °F 57.9 °F 96% 29.77 in 5.0 mi NW 3.5 mph - 0.01 in   Overcast
4:20 AM 59.0 °F 57.2 °F 94% 29.77 in 5.0 mi NW 8.1 mph - N/A   Overcast
4:53 AM 59.0 °F 57.0 °F 93% 29.76 in 5.0 mi NW 3.5 mph - N/A   Overcast
5:53 AM 57.9 °F 55.9 °F 93% 29.77 in 5.0 mi NNW 4.6 mph - N/A   Overcast
6:45 AM 57.2 °F 53.6 °F 88% 29.79 in 4.0 mi NNW 4.6 mph - N/A   Scattered Clouds
6:53 AM 57.0 °F 54.0 °F 89% 29.79 in 5.0 mi NNW 4.6 mph - N/A   Partly Cloudy
7:15 AM 57.2 °F 53.6 °F 88% 29.79 in 4.0 mi NW 3.5 mph - N/A   Scattered Clouds
7:53 AM 57.0 °F 54.0 °F 89% 29.81 in 5.0 mi NNW 4.6 mph - N/A   Scattered Clouds
8:53 AM 57.9 °F 52.0 °F 81% 29.80 in 8.0 mi NNW 4.6 mph - N/A   Overcast
9:53 AM 60.1 °F 51.1 °F 72% 29.81 in 10.0 mi NW 4.6 mph - N/A   Overcast
10:53 AM 63.0 °F 52.0 °F 67% 29.81 in 10.0 mi West 6.9 mph - N/A   Partly Cloudy
11:53 AM 64.9 °F 52.0 °F 63% 29.80 in 10.0 mi West 6.9 mph - N/A   Mostly Cloudy
12:53 PM 68.0 °F 53.1 °F 59% 29.79 in 10.0 mi Variable 4.6 mph - N/A   Overcast
1:53 PM 69.1 °F 52.0 °F 54% 29.79 in 10.0 mi Variable 4.6 mph - N/A   Mostly Cloudy
2:53 PM 72.0 °F 52.0 °F 49% 29.78 in 10.0 mi WNW 5.8 mph - N/A   Mostly Cloudy
3:53 PM 72.0 °F 46.9 °F 41% 29.77 in 10.0 mi NW 9.2 mph - N/A   Scattered Clouds
4:53 PM 73.9 °F 46.0 °F 37% 29.75 in 10.0 mi West 11.5 mph 16.1 mph N/A   Scattered Clouds
5:53 PM 72.0 °F 46.0 °F 40% 29.76 in 10.0 mi WNW 5.8 mph - N/A   Scattered Clouds
6:53 PM 71.1 °F 46.9 °F 42% 29.76 in 10.0 mi Variable 6.9 mph - N/A   Overcast
7:53 PM 68.0 °F 48.0 °F 49% 29.77 in 10.0 mi WNW 10.4 mph 18.4 mph N/A   Overcast
8:53 PM 66.0 °F 43.0 °F 43% 29.79 in 10.0 mi WNW 11.5 mph 19.6 mph N/A   Clear
9:53 PM 64.0 °F 41.0 °F 43% 29.81 in 10.0 mi WNW 8.1 mph 18.4 mph N/A   Clear
10:53 PM 62.1 °F 41.0 °F 46% 29.82 in 10.0 mi West 6.9 mph - N/A   Clear
11:53 PM 59.0 °F 41.0 °F 51% 29.82 in 10.0 mi West 4.6 mph - N/A   Clear